Date String (YYYY-MM-DD hh:mm:ss) UTC,Instrument flags,absolute air pressure of the measurement (hPa),sample flow rate (lpm),inlet stack bypass flow (lpm),air temperature of the measurement (°C),ambient temperature measured by the external sensor (°C),aerosol sample conditioner tube jacket temperature (°C),OPC LED temperature (°C),internal box temperature (°C),relative humidity of the measurement (%),span deviation,mass concentration of particles derived from Lorenz-Mie calculation of OPC scattering (μg/m³),mass concentration of particles derived from Lorenz-Mie calculation of OPC scattering (μg/m³),mass concentration of particles derived from Lorenz-Mie calculation of OPC scattering (μg/m³)
DateTimeUTC,F1_M11,P_M11,Q1_M11,Q2_M11,T1_M11,T2_M11,T3_M11,T4_M11,T5_M11,U1_M11,ZSPAN_M11,X2_M11,X0_M11,X1_M11
2024-05-17 17:00:00,SystemResetWarning,0822.2,4.99,000.00,023.9,022.7,000.0,032.0,025.3,014.0,0000.0,0007.76,0013.31,0007.21
2024-05-17 17:01:00,SystemResetWarning,0822.2,5.01,000.00,023.6,020.8,000.0,032.1,024.4,013.8,0000.0,0007.65,0014.00,0007.13
2024-05-17 17:02:00,SystemResetWarning,0822.3,5.01,000.00,023.4,021.0,000.0,032.1,024.5,014.1,0000.0,0007.52,0013.79,0007.03
2024-05-17 17:03:00,SystemResetWarning,0822.2,5.01,000.00,023.4,021.5,000.0,032.0,024.8,014.7,0000.0,0007.47,0013.69,0007.00
2024-05-17 17:04:00,SystemResetWarning,0822.2,4.99,000.00,023.4,021.9,000.0,031.9,025.0,014.7,0000.0,0007.42,0013.69,0006.95
2024-05-17 17:05:00,SystemResetWarning,0822.3,5.00,000.00,023.5,022.3,000.0,031.8,025.1,014.1,0000.0,0007.33,0012.92,0006.83
2024-05-17 17:06:00,SystemResetWarning,0822.2,5.00,000.00,023.6,022.6,000.0,031.8,025.3,014.4,0000.0,0007.21,0012.52,0006.71
2024-05-17 17:07:00,SystemResetWarning,0822.2,5.00,000.00,023.6,022.9,000.0,031.8,025.4,014.6,0000.0,0007.16,0012.49,0006.61
2024-05-17 17:08:00,SystemResetWarning,0822.2,4.99,000.00,023.7,023.1,000.0,031.8,025.5,014.3,0000.0,0007.04,0012.23,0006.48
2024-05-17 17:09:00,SystemResetWarning,0822.1,5.00,000.00,023.8,023.3,000.0,031.8,025.6,014.4,0000.0,0006.86,0011.55,0006.33
2024-05-17 17:10:00,SystemResetWarning,0822.2,5.00,000.00,023.9,023.5,000.0,031.9,025.7,014.0,0000.0,0006.67,0011.01,0006.17
2024-05-17 17:11:00,SystemResetWarning,0822.2,4.99,000.00,023.9,023.0,000.0,032.0,025.4,014.2,0000.0,0006.59,0011.15,0006.09
2024-05-17 17:12:00,SystemResetWarning,0822.2,5.00,000.00,023.6,021.0,000.0,032.0,024.5,014.1,0000.0,0006.58,0010.65,0006.06
2024-05-17 17:13:00,SystemResetWarning,0822.1,5.02,000.00,023.4,020.8,000.0,032.0,024.4,014.0,0000.0,0006.57,0010.60,0006.06
2024-05-17 17:14:00,SystemResetWarning,0822.1,5.00,000.00,023.4,021.4,000.0,031.9,024.7,014.3,0000.0,0006.49,0010.50,0005.97
2024-05-17 17:15:00,SystemResetWarning,0822.2,5.00,000.00,023.4,021.8,000.0,031.8,024.9,014.8,0000.0,0006.37,0010.31,0005.87
2024-05-17 17:16:00,SystemResetWarning,0822.3,4.99,000.00,023.5,022.2,000.0,031.8,025.1,014.4,0000.0,0006.36,0010.32,0005.89
2024-05-17 17:17:00,SystemResetWarning,0822.2,5.00,000.00,023.5,022.5,000.0,031.7,025.2,015.3,0000.0,0006.43,0010.45,0005.95
2024-05-17 17:18:00,SystemResetWarning,0822.1,5.01,000.00,023.6,022.8,000.0,031.7,025.4,014.6,0000.0,0006.46,0011.04,0005.98
2024-05-17 17:19:00,SystemResetWarning,0822.1,4.99,000.00,023.7,023.1,000.0,031.8,025.5,014.1,0000.0,0006.41,0011.42,0005.94
2024-05-17 17:20:00,SystemResetWarning,0822.1,4.99,000.00,023.7,023.3,000.0,031.8,025.6,014.1,0000.0,0006.43,0011.86,0005.94
2024-05-17 17:21:00,SystemResetWarning,0822.1,5.00,000.00,023.8,023.5,000.0,031.8,025.7,014.9,0000.0,0006.48,0011.98,0005.96
2024-05-17 17:22:00,SystemResetWarning,0822.1,5.00,000.00,023.9,023.3,000.0,031.9,025.6,014.3,0000.0,0006.50,0012.25,0005.97
2024-05-17 17:23:00,SystemResetWarning,0822.0,5.01,000.00,023.7,021.5,000.0,032.0,024.7,014.6,0000.0,0006.51,0012.06,0005.99
2024-05-17 17:24:00,SystemResetWarning,0822.1,5.00,000.00,023.4,020.9,000.0,032.0,024.3,014.5,0000.0,0006.56,0011.51,0006.05
2024-05-17 17:25:00,SystemResetWarning,0822.1,5.02,000.00,023.4,021.4,000.0,031.9,024.6,014.8,0000.0,0006.61,0011.55,0006.12
2024-05-17 17:26:00,SystemResetWarning,0822.2,4.99,000.00,023.4,021.8,000.0,031.8,024.9,014.9,0000.0,0006.67,0011.61,0006.17
2024-05-17 17:27:00,SystemResetWarning,0822.2,5.00,000.00,023.4,022.2,000.0,031.8,025.0,014.9,0000.0,0006.74,0011.65,0006.21
2024-05-17 17:28:00,SystemResetWarning,0822.2,5.01,000.00,023.5,022.5,000.0,031.7,025.2,014.0,0000.0,0006.77,0011.68,0006.23
2024-05-17 17:29:00,SystemResetWarning,0822.2,5.01,000.00,023.6,022.8,000.0,031.7,025.3,014.3,0000.0,0006.78,0011.25,0006.25
2024-05-17 17:30:00,SystemResetWarning,0822.2,5.00,000.00,023.7,023.0,000.0,031.7,025.5,014.8,0000.0,0006.90,0010.96,0006.34
2024-05-17 17:31:00,SystemResetWarning,0822.1,4.98,000.00,023.7,023.3,000.0,031.8,025.6,014.7,0000.0,0007.01,0010.80,0006.43
2024-05-17 17:32:00,SystemResetWarning,0822.1,5.00,000.00,023.8,023.5,000.0,031.8,025.7,014.3,0000.0,0007.05,0010.61,0006.50
2024-05-17 17:33:00,SystemResetWarning,0822.2,5.00,000.00,023.9,023.5,000.0,031.9,025.6,013.8,0000.0,0007.09,0010.24,0006.57
2024-05-17 17:34:00,SystemResetWarning,0822.1,4.99,000.00,023.7,021.9,000.0,031.9,024.9,013.7,0000.0,0007.16,0010.57,0006.61
2024-05-17 17:35:00,SystemResetWarning,0822.1,5.01,000.00,023.4,020.7,000.0,032.0,024.3,014.3,0000.0,0007.21,0010.69,0006.63
2024-05-17 17:36:00,SystemResetWarning,0822.1,5.01,000.00,023.3,021.3,000.0,031.9,024.6,014.6,0000.0,0007.23,0010.73,0006.63
2024-05-17 17:37:00,SystemResetWarning,0822.1,4.99,000.00,023.4,021.7,000.0,031.8,024.8,014.4,0000.0,0007.26,0011.04,0006.67
2024-05-17 17:38:00,SystemResetWarning,0822.1,4.99,000.00,023.4,022.0,000.0,031.8,025.0,014.5,0000.0,0007.29,0011.16,0006.71
2024-05-17 17:39:00,SystemResetWarning,0822.1,5.01,000.00,023.5,022.4,000.0,031.7,025.1,014.3,0000.0,0007.28,0011.25,0006.72
2024-05-17 17:40:00,SystemResetWarning,0822.2,5.00,000.00,023.6,022.7,000.0,031.7,025.3,014.9,0000.0,0007.29,0011.46,0006.77
2024-05-17 17:41:00,SystemResetWarning,0822.0,5.00,000.00,023.6,023.0,000.0,031.7,025.4,014.8,0000.0,0007.31,0011.50,0006.81
2024-05-17 17:42:00,SystemResetWarning,0822.1,4.99,000.00,023.7,023.2,000.0,031.7,025.5,014.5,0000.0,0007.34,0011.43,0006.87
2024-05-17 17:43:00,SystemResetWarning,0822.1,5.00,000.00,023.8,023.4,000.0,031.8,025.6,014.0,0000.0,0007.40,0011.33,0006.91
2024-05-17 17:44:00,SystemResetWarning,0822.2,4.99,000.00,023.8,023.1,000.0,031.9,025.4,013.9,0000.0,0007.43,0011.36,0006.93
2024-05-17 17:45:00,SystemResetWarning,0822.2,5.00,000.00,023.6,021.4,000.0,031.9,024.5,014.6,0000.0,0007.46,0011.17,0006.96
2024-05-17 17:46:00,SystemResetWarning,0822.1,5.01,000.00,023.3,021.0,000.0,031.9,024.3,014.6,0000.0,0007.48,0011.09,0007.00
2024-05-17 17:47:00,SystemResetWarning,0822.2,5.00,000.00,023.3,021.5,000.0,031.9,024.6,015.1,0000.0,0007.51,0011.09,0007.04
2024-05-17 17:48:00,SystemResetWarning,0822.1,4.98,000.00,023.4,021.9,000.0,031.8,024.8,015.0,0000.0,0007.55,0010.89,0007.07
2024-05-17 17:49:00,SystemResetWarning,0822.0,5.01,000.00,023.4,022.2,000.0,031.7,025.0,014.9,0000.0,0007.56,0010.82,0007.07
2024-05-17 17:50:00,SystemResetWarning,0822.0,5.01,000.00,023.5,022.6,000.0,031.7,025.2,015.0,0000.0,0007.57,0011.54,0007.09
2024-05-17 17:51:00,SystemResetWarning,0822.0,5.01,000.00,023.6,022.9,000.0,031.7,025.3,015.0,0000.0,0007.57,0011.36,0007.09
2024-05-17 17:52:00,SystemResetWarning,0822.1,4.99,000.00,023.6,023.1,000.0,031.7,025.5,015.0,0000.0,0007.55,0011.21,0007.07
2024-05-17 17:53:00,SystemResetWarning,0822.1,5.00,000.00,023.7,023.3,000.0,031.8,025.6,014.6,0000.0,0007.49,0011.23,0007.02
2024-05-17 17:54:00,SystemResetWarning,0822.1,4.99,000.00,023.8,023.5,000.0,031.8,025.7,014.5,0000.0,0007.44,0011.24,0006.99
2024-05-17 17:55:00,SystemResetWarning,0822.0,4.98,000.00,023.9,023.4,000.0,031.9,025.6,014.9,0000.0,0007.39,0011.13,0006.97
2024-05-17 17:56:00,SystemResetWarning,0822.1,5.01,000.00,023.7,021.7,000.0,031.9,024.8,014.6,0000.0,0007.35,0011.47,0006.97
2024-05-17 17:57:00,SystemResetWarning,0822.0,5.01,000.00,023.4,021.0,000.0,031.9,024.4,014.6,0000.0,0007.33,0011.71,0006.98
2024-05-17 17:58:00,SystemResetWarning,0822.0,5.01,000.00,023.4,021.5,000.0,031.9,024.7,015.4,0000.0,0007.34,0011.75,0006.97
2024-05-17 17:59:00,SystemResetWarning,0822.0,5.00,000.00,023.4,021.9,000.0,031.8,024.9,015.9,0000.0,0007.34,0011.74,0006.97
